Tracking 30743 objects as of 20-Jun-2025
HD Live streaming from Space Station
objects crossing your sky now

USA 181

Track USA 181 now!
10-day predictions
USA 181 is classified as:


NORAD ID: 28537
Int'l Code: 2005-004A
Perigee: 726.7 km
Apogee: 1,497.5 km
Inclination: 63.4 °
Period: 107.4 minutes
Semi major axis: 7483 km
RCS: Unknown
Launch date: February 3, 2005
Source: United States (US)
Launch site: AIR FORCE EASTERN TEST RANGE (AFETR)
Your satellite tracking list
Your tracking list is empty




NASA's NSSDC Master Catalog

Two Line Element Set (TLE):
1 28537U 05004A   25120.86882689 0.00000340  00000-0  27897-3 0    05
2 28537  63.4026  43.4575 0515005   3.0163 356.9837 13.41157059    02
Source of the keplerian elements: McCants